Theta_e
304 304 304 304 304 304 304 303 303 303 303 303 302 303 303 304 305 303 300 304 302 298 299 302 303 300 299 297 292 298 296 300 297 293 293 292 291 294 292 295 293 291 290 288 290 286 283 304 303 294 299 302 303 302
303 303 303 303 303 303 303 303 303 303 302 302 302 302 303 304 304 305 298 305 305 301 300 305 304 305 303 302 299 299 297 297 299 293 293 294 292 293 291 286 296 288 294 293 293 291 299 302 298 304 304 302 303 300
302 302 303 303 303 303 303 303 302 302 302 302 302 303 303 304 304 303 299 301 300 297 297 298 298 304 307 306 306 295 297 302 301 305 296 293 290 293 287 289 292 295 298 291 293 297 299 301 303 304 304 305 304 304
301 301 301 301 302 302 303 303 303 302 301 302 303 303 303 304 304 304 299 301 300 297 291 294 306 302 306 306 307 307 303 305 303 302 296 293 290 296 290 292 291 294 296 293 292 297 301 302 304 304 306 309 307 306
300 300 300 301 301 301 302 302 303 302 302 302 302 301 303 304 305 303 301 301 302 296 291 292 298 300 303 303 306 307 304 302 299 296 293 291 294 294 294 293 291 295 292 290 291 299 298 298 302 304 303 304 305 307
300 300 301 301 301 301 301 302 302 302 302 302 302 301 302 304 304 300 295 304 306 306 295 288 298 298 301 303 303 305 305 304 301 296 295 298 301 295 289 287 294 297 298 299 297 302 301 302 304 306 304 307 308 307
301 301 301 301 301 301 301 302 302 301 302 302 302 302 302 303 300 294 294 300 303 303 294 289 290 299 303 301 300 301 303 302 300 298 295 295 295 298 293 288 295 298 300 300 302 303 300 302 300 304 306 307 308 308
301 301 301 301 301 301 301 301 301 302 302 302 302 302 303 303 302 295 298 302 304 298 297 288 289 293 301 298 295 300 297 300 301 297 297 294 295 294 289 294 297 299 300 300 304 304 302 304 305 305 307 308 306 305
301 301 301 301 300 300 301 301 301 302 302 302 302 301 300 298 294 296 306 306 303 299 291 291 287 286 300 298 299 301 302 293 301 295 295 295 292 289 294 295 297 299 299 303 303 302 302 301 302 303 304 305 306 307
300 301 301 300 300 300 301 301 301 301 302 302 299 295 290 296 305 305 302 295 295 296 295 289 294 289 295 294 295 295 298 294 291 295 298 293 291 297 299 300 300 301 305 304 299 298 298 299 300 301 302 305 307 308
300 300 300 300 300 300 300 301 301 301 300 297 293 291 301 307 301 296 290 289 290 287 291 291 291 288 296 289 290 296 293 294 288 291 291 290 289 296 301 302 303 304 304 303 302 299 299 299 300 301 303 305 308 309
300 300 299 300 300 299 300 301 301 299 297 298 296 299 300 296 292 287 286 289 288 286 292 291 292 293 293 298 293 294 290 291 285 293 290 287 293 299 300 301 303 304 303 302 301 300 301 302 302 302 303 305 308 311
300 299 299 300 299 299 299 300 300 301 300 297 293 288 288 289 283 282 281 285 287 292 294 295 292 295 297 296 293 292 288 286 293 287 285 290 298 301 302 301 301 302 300 300 300 301 301 301 303 303 304 306 309 310
298 298 298 299 299 299 299 300 300 300 295 288 285 281 282 282 284 286 287 290 295 295 294 294 294 293 294 291 291 287 290 290 284 283 285 294 297 298 300 300 298 297 298 297 297 298 298 299 299 302 303 307 309 308
297 297 298 298 298 299 299 300 301 298 291 285 286 279 284 288 291 294 296 294 295 298 296 294 294 294 291 289 291 289 286 284 286 286 291 296 299 300 299 298 297 296 295 294 295 295 297 297 300 301 306 308 308 309
297 297 297 298 299 299 299 300 298 294 288 287 286 284 288 289 289 292 293 293 298 297 296 295 288 285 287 289 286 285 284 283 288 293 297 297 299 299 298 297 296 296 295 294 295 295 295 296 296 300 305 304 304 306
297 294 298 299 300 299 300 295 291 285 286 285 284 289 288 288 288 290 294 293 299 293 289 288 285 285 291 286 286 290 287 290 294 294 298 298 298 297 296 296 296 295 294 293 293 294 294 296 298 299 298 301 302 303
294 297 298 298 299 297 293 291 288 286 283 285 285 288 290 291 290 292 293 295 295 293 292 288 291 287 286 284 286 291 292 297 297 297 297 298 300 298 297 296 296 295 294 294 294 293 294 294 294 295 298 299 301 301
296 297 298 299 297 293 289 289 290 284 285 288 290 290 291 292 294 294 294 296 296 297 295 292 287 286 287 291 292 293 294 296 295 297 298 300 300 299 298 297 297 295 295 294 293 293 294 294 295 296 296 297 298 300
297 299 298 298 297 291 288 289 294 288 285 288 290 289 290 290 292 292 293 294 294 292 289 288 288 290 291 294 296 296 296 297 296 295 296 297 300 299 297 296 296 296 296 295 295 293 294 295 295 295 295 295 296 297
296 297 298 298 294 291 290 290 288 289 289 287 290 290 289 292 291 291 291 294 291 289 288 291 292 294 296 296 297 297 297 298 296 296 295 295 299 299 297 297 298 298 296 296 295 294 292 293 294 295 295 295 295 296
297 298 296 295 290 291 290 293 290 293 290 289 289 291 288 287 289 291 294 291 290 292 293 294 295 296 296 296 297 300 299 300 300 298 296 297 298 297 297 298 298 297 297 297 295 293 293 294 294 294 294 293 293 294
296 296 294 293 288 287 285 294 288 289 285 287 291 288 289 290 292 296 291 292 293 297 298 298 298 299 298 299 299 300 300 299 297 298 300 301 301 300 298 298 299 299 298 296 295 293 292 291 291 292 293 293 292 292
296 292 288 286 287 283 290 287 290 288 289 287 287 286 288 291 296 292 288 292 293 296 296 295 297 298 299 299 297 297 300 301 300 301 302 301 298 299 300 300 301 303 301 296 294 294 294 293 291 292 292 292 292 292
285 284 286 282 288 286 285 286 287 287 285 287 287 287 290 294 289 288 289 291 293 294 294 296 296 295 296 298 300 299 302 300 300 299 301 302 301 301 301 303 304 302 299 295 293 294 293 293 292 292 292 291 291 291
280 286 283 286 286 285 286 284 286 286 287 286 288 291 293 290 287 287 289 291 291 290 291 291 291 293 298 299 297 299 301 304 303 300 301 302 303 301 300 299 300 300 300 298 295 293 293 293 292 292 291 289 287 291
281 284 289 292 290 290 288 290 291 289 287 285 287 286 289 284 284 288 291 292 289 291 294 295 293 293 295 296 300 303 304 306 304 303 303 303 303 305 304 301 301 301 300 299 297 295 294 293 292 291 290 290 291 291
287 289 286 290 290 291 288 288 288 287 289 292 291 287 285 285 285 288 288 292 295 297 299 300 298 297 296 298 300 302 302 305 306 306 306 307 307 308 307 305 302 290 299 299 297 296 295 294 293 292 291 290 290 292
287 291 291 288 290 290 290 289 289 290 294 293 289 288 288 291 293 293 296 297 300 299 297 297 300 301 300 304 305 305 306 305 303 301 301 300 302 302 303 302 300 299 297 293 287 293 296 294 293 293 292 291 291 292
289 293 290 290 288 288 293 297 295 299 299 297 296 294 294 295 298 301 299 298 296 296 297 299 299 299 298 297 298 299 302 302 302 302 300 300 302 305 304 301 300 298 298 295 293 291 288 292 290 292 291 291 290 290
293 293 290 291 290 294 296 298 299 298 298 296 298 295 294 296 299 301 300 298 297 297 296 296 297 299 298 297 297 296 296 300 300 301 302 303 307 306 304 301 300 299 297 296 295 294 293 292 292 290 290 289 290 290
292 290 290 288 290 295 298 297 296 295 296 294 294 297 295 294 292 297 299 299 297 295 292 296 297 297 298 299 299 298 290 297 298 299 301 304 307 306 303 301 300 298 297 296 295 295 293 292 291 290 290 290 290 291
292 292 292 291 291 292 295 295 293 293 294 293 293 295 295 293 290 296 302 301 298 296 296 297 299 300 300 299 297 297 293 298 297 289 287 288 288 292 298 301 301 299 297 295 295 294 293 293 291 291 291 291 291 292
Wind_Speed
11 10 10 9 9 9 7 8 8 9 9 9 11 12 13 14 15 8 7 8 2 4 12 9 10 5 6 3 3 5 7 5 3 2 3 4 3 4 4 5 3 1 3 2 3 3 4 7 5 3 7 2 3 5
9 9 9 9 8 9 8 8 7 7 9 9 10 11 12 12 13 11 4 8 8 5 7 17 19 16 16 15 3 3 4 3 3 3 4 5 4 4 5 4 4 4 1 4 5 6 6 6 4 4 1 4 3 3
10 9 8 8 9 9 8 9 8 9 8 9 11 11 11 11 12 8 5 6 5 4 9 9 9 15 16 16 13 4 3 3 3 5 2 2 4 4 3 5 6 8 7 3 6 9 14 11 5 7 8 4 4 4
9 9 9 10 9 8 8 9 9 9 9 10 10 10 11 11 12 10 4 6 5 4 5 7 8 7 19 12 14 9 8 7 1 3 3 3 2 4 3 5 8 5 7 7 9 11 8 7 5 3 3 5 4 2
10 10 10 10 10 9 8 8 8 9 9 9 9 11 11 11 11 8 7 8 7 4 5 10 19 13 10 9 8 12 9 5 2 2 3 3 1 3 4 5 10 5 5 3 7 6 2 6 7 7 6 6 7 3
11 10 10 9 9 9 10 9 9 10 10 10 10 10 11 9 8 4 4 3 3 3 3 4 7 14 14 11 11 10 6 5 4 4 3 3 3 1 3 5 8 2 6 4 6 8 8 9 7 7 5 5 5 4
12 11 11 12 11 11 10 10 10 12 10 9 10 10 9 9 4 5 3 1 7 6 1 4 6 6 7 8 4 5 9 5 5 4 4 5 6 4 3 12 11 16 17 18 17 8 8 9 7 9 8 8 9 6
11 12 11 11 12 10 10 11 11 11 11 10 9 9 9 9 9 8 10 16 4 1 3 3 5 6 5 3 3 5 5 6 4 4 3 4 3 4 7 15 18 18 20 18 4 6 3 6 9 10 11 14 12 5
13 14 12 10 9 8 9 9 10 10 10 9 7 9 4 4 4 4 11 10 6 4 3 3 3 5 3 4 2 2 3 1 2 3 7 4 4 9 9 12 15 14 12 4 8 7 7 8 8 9 10 13 13 16
13 13 14 11 10 10 10 9 9 8 7 6 3 3 4 5 10 9 2 5 5 4 4 4 5 8 5 5 2 3 3 3 3 6 4 7 12 14 12 15 12 8 3 4 6 6 6 6 7 8 11 12 9 10
13 12 12 12 11 9 10 10 9 6 2 2 3 4 3 7 2 1 3 5 5 3 5 7 12 12 5 7 5 4 2 3 4 5 9 4 4 10 10 7 3 9 6 5 4 5 7 7 8 8 9 15 12 18
12 12 11 11 10 9 10 9 8 5 3 1 3 4 3 3 3 4 4 4 6 7 9 7 10 10 5 3 3 2 3 3 5 3 3 3 1 11 9 10 12 12 14 14 10 10 10 9 9 13 9 13 12 8
12 11 11 11 12 10 10 9 9 10 3 1 2 2 2 3 5 6 7 6 5 6 5 8 6 6 4 2 3 3 4 5 4 3 4 2 6 8 7 5 9 3 11 14 14 13 13 14 13 12 11 10 14 3
10 10 11 11 11 11 11 11 10 9 3 3 4 4 6 6 7 7 8 7 4 4 7 6 6 3 1 4 3 4 6 3 4 4 2 6 9 7 6 6 7 8 8 10 11 12 12 13 15 16 15 12 3 5
9 10 11 12 13 13 12 12 13 3 3 5 5 6 9 9 9 5 0 3 5 5 4 2 2 3 1 2 3 4 3 5 5 3 2 3 3 5 5 3 6 5 6 8 9 9 10 12 13 12 13 2 2 5
9 9 11 15 15 14 13 8 6 2 2 4 5 5 8 6 7 6 4 2 1 3 3 2 2 2 1 3 5 7 4 4 3 4 2 5 7 5 4 5 4 4 4 6 6 8 8 9 12 13 5 7 6 7
6 4 2 3 17 10 13 2 3 4 4 5 6 9 9 10 8 7 4 2 3 3 2 1 2 7 5 2 4 3 2 3 3 5 7 2 5 6 5 2 4 5 4 5 5 6 6 7 10 6 8 7 6 5
4 2 6 7 8 8 2 1 3 4 6 7 6 7 8 9 9 5 7 3 3 4 3 4 4 3 4 3 1 3 1 4 6 8 2 3 6 5 4 3 6 4 3 3 4 4 4 4 6 5 6 6 4 5
2 4 7 12 6 4 4 5 4 4 8 6 8 9 9 6 7 7 8 7 6 5 4 4 5 3 3 3 3 3 3 3 0 1 4 4 10 7 5 2 2 2 2 3 3 3 3 3 3 3 3 4 2 3
8 14 12 10 4 2 4 4 3 5 5 5 8 10 9 9 10 9 9 8 7 6 9 7 8 8 6 5 4 3 3 3 2 3 2 2 6 6 5 2 2 1 3 4 3 5 4 1 1 1 3 3 3 3
6 5 7 7 2 2 4 2 5 5 5 6 7 8 6 7 8 8 9 7 7 7 10 8 8 8 9 8 5 4 4 3 3 3 4 1 4 4 3 3 1 1 3 5 5 3 2 2 2 2 2 2 3 3
2 12 3 4 3 4 5 5 3 2 3 5 7 7 7 8 8 9 7 7 9 8 8 9 10 8 7 7 6 5 4 6 6 5 5 6 4 1 2 3 2 4 5 6 3 4 3 3 1 1 2 1 2 2
3 3 3 5 4 4 6 3 5 4 5 1 2 2 4 4 6 6 4 6 7 5 5 6 7 7 10 11 10 5 7 6 4 5 4 4 3 2 2 4 3 5 5 3 5 5 3 4 2 1 2 2 3 3
2 2 3 4 5 5 4 5 4 4 5 6 4 4 5 5 2 2 4 1 3 3 4 7 5 7 8 9 5 4 1 2 2 3 3 3 1 3 3 3 4 6 3 6 5 4 4 4 3 2 2 3 3 4
1 4 3 4 5 5 5 6 10 8 11 11 9 6 1 1 2 3 1 2 1 4 4 5 3 7 10 5 0 2 4 3 2 3 3 2 2 3 5 5 6 3 8 7 6 6 5 5 3 3 3 2 4 5
4 5 5 5 5 4 2 4 4 5 4 4 4 5 3 2 3 3 2 5 3 3 5 5 6 7 3 4 2 3 4 1 2 3 3 3 5 6 6 6 5 3 8 8 8 7 7 6 6 6 5 5 4 6
4 5 6 6 5 4 4 2 3 2 2 2 2 2 3 3 5 4 4 3 4 7 7 7 7 6 5 4 4 2 2 3 2 3 6 6 6 8 8 8 4 0 8 9 8 9 8 7 6 6 6 5 3 3
5 4 5 5 5 4 8 4 2 2 3 2 2 3 4 5 3 3 3 7 8 9 5 0 3 4 4 5 4 4 3 1 4 9 8 7 7 6 4 2 3 10 9 8 9 9 7 6 7 7 7 5 5 3
5 4 5 9 7 4 2 2 3 3 3 1 2 3 3 0 2 2 4 6 6 4 7 8 7 2 3 2 5 6 6 6 7 4 3 5 7 7 8 9 9 9 8 7 8 7 11 8 8 8 8 6 6 5
8 2 4 4 3 3 3 2 1 2 3 3 4 2 1 1 2 3 4 3 7 9 8 6 6 6 8 8 7 8 4 6 8 7 6 6 3 2 5 10 10 9 9 10 9 11 11 11 10 8 7 6 6 6
5 5 3 2 3 5 8 8 7 4 6 5 5 5 4 2 2 7 7 7 7 8 8 8 8 8 7 8 8 8 8 6 10 10 8 5 4 2 6 10 10 9 9 10 8 8 8 8 8 8 8 8 9 7
2 2 2 4 4 5 4 1 8 6 6 5 4 3 1 1 3 4 6 7 7 8 8 8 7 7 7 6 7 5 4 6 6 6 8 5 5 7 5 10 10 9 10 9 8 9 10 10 8 8 9 11 10 10
5 6 6 6 3 6 4 5 5 4 4 3 2 4 5 4 4 3 4 7 6 6 7 6 3 2 4 7 8 7 6 6 9 6 5 4 3 3 1 9 10 11 13 10 9 10 10 13 12 11 12 13 13 12
Wind_Direction
253 256 261 264 269 266 268 273 282 291 297 312 321 326 331 335 342 347 285 286 275 282 294 269 304 330 328 275 255 322 357 10 298 252 260 276 284 305 358 350 350 345 258 289 291 303 316 352 45 24 232 272 322 358
248 254 258 262 261 263 265 268 274 281 291 310 309 315 319 326 335 340 281 349 337 245 276 315 286 270 257 253 306 287 277 329 277 13 4 341 333 317 326 281 331 304 206 245 193 226 312 357 275 259 59 63 39 4
250 252 255 259 266 263 259 261 263 282 287 293 293 297 308 314 318 327 296 306 303 263 278 249 259 260 240 231 216 206 261 273 15 313 134 258 280 357 293 293 346 330 14 340 354 341 317 300 354 41 13 355 317 302
250 257 264 267 277 281 275 263 262 257 276 281 285 294 298 301 303 305 285 299 302 279 269 282 19 330 313 323 193 190 216 278 42 326 288 228 255 309 291 298 292 238 322 306 300 291 304 349 330 284 302 324 323 344
248 254 258 257 260 265 270 275 272 268 259 269 280 290 293 300 307 298 265 250 258 257 311 312 315 283 279 260 238 199 193 198 197 256 238 252 242 282 296 270 266 195 231 235 270 300 295 283 306 321 306 275 282 152
239 251 261 263 266 268 271 271 266 274 263 258 266 281 287 295 318 300 305 37 17 291 264 290 328 284 273 259 231 221 189 173 180 164 208 234 255 233 262 275 253 75 324 312 290 282 275 269 304 316 329 329 317 204
237 245 253 259 261 266 268 271 272 273 262 262 260 271 281 283 273 242 296 272 341 326 47 275 263 256 270 217 226 209 194 188 174 193 210 235 245 191 228 252 250 313 304 300 300 312 360 352 315 314 317 282 281 233
242 245 252 259 259 255 263 267 271 269 267 264 265 281 283 284 277 263 251 263 158 246 249 257 262 285 275 248 214 190 203 201 180 200 175 212 234 207 247 240 261 255 266 282 308 359 299 333 355 350 347 345 329 278
244 237 241 249 254 263 269 271 266 267 262 251 264 278 270 217 228 241 228 216 170 214 252 243 249 263 288 289 187 44 21 140 182 229 229 166 201 221 232 229 242 254 258 87 298 322 1 352 346 335 329 329 339 331
250 249 226 232 245 255 263 263 266 251 270 228 233 216 232 207 235 277 105 170 192 218 220 244 258 265 348 326 123 294 141 225 246 218 182 213 237 250 251 259 269 274 29 106 12 325 345 341 331 325 324 308 313 312
245 241 234 230 243 256 270 247 247 230 172 207 219 231 338 320 60 118 242 195 182 224 213 226 223 245 242 258 278 142 254 269 267 220 179 227 243 246 247 307 320 22 30 32 41 354 344 336 321 302 309 306 313 305
249 233 228 233 232 252 263 264 232 170 189 14 314 268 265 234 188 219 209 206 217 226 183 204 208 201 226 202 199 208 254 271 252 287 215 227 212 57 31 26 27 21 0 340 358 349 336 328 319 302 298 300 304 273
234 221 225 234 238 242 251 255 232 196 212 23 256 296 282 228 225 228 211 198 223 209 240 195 198 174 168 133 174 177 233 257 298 250 246 217 127 96 61 100 90 35 350 347 342 333 324 314 305 294 299 302 289 230
222 234 239 237 236 241 240 240 226 185 134 203 164 229 213 202 229 209 242 288 13 338 318 43 289 150 103 153 192 244 224 252 251 228 242 59 59 52 28 31 47 11 9 341 322 317 305 312 309 301 293 289 208 126
238 241 235 238 238 234 235 243 209 140 167 211 189 225 221 233 262 283 331 8 357 360 345 54 0 334 142 114 271 247 246 238 238 11 46 78 78 136 185 31 16 10 334 314 316 316 324 323 323 308 283 215 101 149
241 256 241 234 229 225 226 208 170 110 217 227 226 251 268 263 276 300 347 313 48 25 329 175 145 246 234 172 207 209 226 230 56 45 77 180 193 171 88 50 8 333 302 298 305 313 319 325 319 309 347 48 62 61
218 246 50 245 206 214 193 135 117 189 206 218 226 222 260 278 266 275 238 240 173 92 279 172 228 232 136 225 240 223 326 24 24 16 277 138 134 120 108 103 335 302 269 294 292 292 301 324 324 352 8 14 20 48
235 345 299 195 155 106 87 122 200 203 227 226 238 233 245 260 270 266 278 278 173 178 201 209 245 251 231 253 186 112 348 259 202 233 282 349 127 129 122 57 322 251 240 285 261 293 299 331 341 344 13 343 331 26
347 288 226 175 131 125 175 189 206 239 233 249 230 235 245 260 256 237 252 254 234 232 168 192 223 223 235 292 322 324 310 12 46 284 177 240 132 140 130 74 271 290 237 290 313 305 303 282 293 336 336 338 358 59
285 157 153 134 166 230 209 184 208 249 256 234 232 243 249 234 239 246 247 247 230 240 225 224 236 250 256 242 241 273 301 294 316 331 297 251 124 120 116 141 173 204 247 253 246 266 280 184 339 2 337 352 339 69
191 108 109 169 190 208 279 246 222 247 257 245 247 244 230 266 265 259 254 251 249 245 252 257 263 256 243 251 251 230 252 253 260 262 270 302 138 134 146 194 113 323 265 269 257 190 154 109 55 10 38 16 12 32
105 175 161 182 220 232 245 217 233 257 252 253 288 269 245 240 243 240 240 243 251 251 249 256 259 269 283 278 263 236 235 272 267 249 127 139 151 163 207 198 155 243 257 272 140 135 111 100 72 48 90 83 66 96
249 227 225 201 219 218 259 233 224 233 252 251 353 279 269 250 251 237 232 229 246 264 295 294 289 281 266 262 261 246 236 251 256 273 123 113 152 219 231 233 220 260 264 106 105 111 126 122 108 115 119 102 101 106
256 265 237 202 211 255 249 224 222 244 233 244 260 242 233 204 195 236 243 184 43 342 11 342 342 327 304 298 273 217 197 47 26 98 135 134 213 241 240 271 281 254 139 117 115 120 125 106 118 96 82 101 97 106
213 242 187 241 240 245 247 234 228 231 273 305 304 264 10 43 211 247 278 121 292 354 337 329 276 269 260 234 44 359 330 296 237 239 169 165 125 350 307 289 270 194 134 127 134 137 137 129 126 120 105 95 117 111
247 218 199 242 227 226 244 291 332 330 320 307 332 353 337 317 279 2 36 2 335 302 291 281 285 298 257 193 194 249 215 83 44 281 262 205 194 212 211 249 269 240 152 136 138 145 144 140 138 135 115 110 98 122
255 253 210 223 255 287 318 300 291 323 267 267 270 284 303 330 24 6 342 324 290 280 280 264 222 235 274 323 297 235 209 139 186 277 287 280 279 262 196 192 209 61 119 122 132 139 137 138 142 139 132 127 109 101
253 265 288 309 288 243 267 313 315 332 322 265 289 360 6 6 345 322 269 275 293 304 312 92 156 186 230 263 294 321 328 117 253 265 274 273 253 149 145 128 111 112 122 122 121 126 135 138 127 125 127 121 118 101
249 273 282 282 276 264 250 192 182 202 237 324 41 18 10 308 217 255 293 315 315 344 20 31 25 157 257 255 34 23 10 11 14 9 147 117 99 110 122 110 102 91 87 80 75 107 120 115 116 118 119 120 123 119
274 279 271 283 317 298 286 290 243 92 151 96 120 138 177 334 296 220 257 347 38 33 7 18 22 26 49 35 21 26 14 15 22 16 24 20 348 34 127 117 113 114 106 97 100 99 97 102 100 102 112 116 121 128
240 224 243 252 232 232 244 253 83 112 93 67 51 94 75 146 82 24 23 43 37 28 21 22 24 28 44 34 22 0 348 360 356 347 352 314 308 197 128 118 115 116 120 120 134 134 131 122 117 121 121 127 130 136
229 222 224 259 272 277 257 191 121 89 132 77 62 113 93 34 74 25 16 21 27 29 16 16 31 40 31 20 19 350 309 303 313 320 326 336 35 16 111 121 120 125 123 125 130 129 131 126 124 127 133 135 137 138
239 252 266 278 356 323 360 335 110 146 62 56 27 56 71 52 76 356 11 33 37 24 12 358 15 41 42 42 11 341 330 320 308 289 241 246 282 288 277 135 134 132 131 131 129 131 136 134 133 138 135 134 136 127